Location: Starlight Observatory
(38.4029°N, 85.8936°W)
Time: 18:20:39
(UTC-04:00)

Iridium 62 - Visible Passes

Search period start: 29 May 2015 00:00
Search period end: 08 June 2015 00:00
Orbit: 776 x 779 km, 86.4° (Epoch: 29 May)

Date Brightness Start Highest point End Pass type
(mag) Time Alt. Az. Time Alt. Az. Time Alt. Az.
29 May 8.9 22:47:23 10° W 22:48:52 11° WNW 22:49:59 10° WNW visible
30 May 8.4 22:10:56 10° SW 22:14:53 21° WNW 22:18:41 10° NNW visible
31 May 7.4 21:36:15 10° SSW 21:41:05 38° W 21:45:55 10° NNW visible
02 Jun 8.7 22:12:22 10° WSW 22:15:15 14° WNW 22:17:52 10° NW visible
03 Jun 8.2 21:36:57 10° SW 21:41:20 26° WNW 21:45:39 10° NNW visible
06 Jun 8.6 21:38:00 10° WSW 21:41:39 18° WNW 21:45:07 10° NNW visible
